Flag for Canada Weather past 2 weeks in Red Deer, Alberta, Canada

Now
57 °F

Passing clouds.


Feels Like: 57 °F
Forecast: 54 / 76 °F
Wind: 3 mph from South

Location: Red Deer

Current Time: Aug 2, 2015 at 4:42:32 AM

Latest Report: Aug 2, 2015 at 4:00 AM


Visibility: 15 mi

Pressure: 30.06 "Hg (27.15 "Hg at 857m altitude)

Humidity: 94%

Dew point: 55 °F

Location of Red DeerLocation

Historic Weather in Red Deer — Graph

°F

Red Deer temperature yesterday

Maximum temperature yesterday: 73 °F (at 3:00 PM)
Minimum temperature yesterday: 52 °F (at 6:00 AM)
Average temperature yesterday: 64 °F

Past Weeks' High & Low Weather Summary

 TemperatureHumidityPressure
High82 °F (Jul 31, 5:00 PM)100% (Jul 22, 5:00 AM)30.27 "Hg (Jul 22, 5:00 AM)
Low43 °F (Jul 23, 4:00 AM)35% (Jul 31, 5:00 PM)29.69 "Hg (Jul 21, 7:00 PM)
Average60 °F73%29.96 "Hg
* Reported Jul 18 3:00 AM — Aug 2 3:00 AM, Red Deer, Weather by CustomWeather, © 2015

Note: Actual official high and low records may vary slightly from our data, if they occured in-between our weather recording intervals... More about our weather records

Advertising

Red Deer weather history for previous 24 hours

 ConditionsComfort  
Time TempWeatherWind HumidityBarometerVisibility
3:00 AM
Sun, Aug 2
57 °FPartly cloudy.5 mph94%30.06 "Hg15 mi
2:00 AM59 °FPartly cloudy.3 mph88%30.06 "Hg15 mi
1:00 AM59 °FPassing clouds.2 mph94%30.06 "Hg15 mi
12:00 AM59 °FPassing clouds.5 mph88%30.05 "Hg15 mi
11:00 PM
Sat, Aug 1
59 °FPassing clouds.2 mph88%30.05 "Hg15 mi
10:00 PM63 °FPartly sunny.2 mph77%30.05 "Hg15 mi
9:00 PM63 °FPartly sunny.5 mph83%30.04 "Hg15 mi
8:00 PM68 °FPartly sunny.5 mph69%30.03 "Hg15 mi
7:00 PM68 °FPartly sunny.6 mph69%30.03 "Hg15 mi
6:00 PM72 °FBroken clouds.7 mph57%30.02 "Hg15 mi
5:00 PM72 °FBroken clouds.9 mph61%30.01 "Hg15 mi
4:00 PM72 °FBroken clouds.7 mph61%30.01 "Hg15 mi
3:00 PM73 °FBroken clouds.8 mph53%30.01 "Hg15 mi
2:00 PM72 °FBroken clouds.13 mph57%30.01 "Hg15 mi
1:00 PM72 °FScattered clouds.10 mph53%30.01 "Hg15 mi
12:00 PM70 °FScattered clouds.12 mph60%30.01 "Hg15 mi
11:00 AM68 °FScattered clouds.10 mph64%30.02 "Hg15 mi
10:00 AM66 °FScattered clouds.10 mph64%30.01 "Hg15 mi
9:00 AM63 °FPartly sunny.7 mph83%30.01 "Hg15 mi
8:00 AM59 °FPartly sunny.3 mph88%29.99 "Hg15 mi
7:00 AM54 °FScattered clouds.3 mph94%29.97 "Hg15 mi
6:00 AM52 °FPassing clouds.8 mph94%29.96 "Hg15 mi
5:00 AM54 °FPassing clouds.7 mph94%29.96 "Hg15 mi
4:00 AM54 °FPassing clouds.3 mph94%29.96 "Hg15 mi
Weather by CustomWeather, © 2015

See weather overviewHow to use our weather pages